Theta_e
334 334 334 333 333 333 332 332 332 331 332 331 331 331 331 330 329 330 329 328 328 329 330 331 329 329 329 329 328 329 330 331 330 330 329 329 329 329 329 328 327 327 327 327 327 326 324 324 324 325 326 326 326 326 325 324 324 323 324 325 324 325 323
332 332 333 333 332 332 332 331 332 332 332 331 330 331 331 330 329 330 329 328 327 327 329 330 329 329 329 329 328 329 330 330 330 329 329 328 329 329 329 328 327 327 327 327 327 327 325 323 324 325 325 325 325 325 324 324 324 324 325 325 324 325 323
328 330 333 333 332 332 331 330 331 331 331 330 330 331 330 330 329 329 329 329 328 328 329 330 329 329 329 328 328 329 329 329 329 328 328 329 329 329 329 328 327 326 327 327 327 327 326 324 324 324 325 325 324 324 324 324 324 324 325 324 324 324 324
325 330 332 333 332 332 331 331 331 331 331 330 330 330 330 329 328 328 329 329 329 329 329 330 330 329 328 328 328 328 329 329 328 327 328 329 329 329 329 329 327 326 326 326 326 326 325 325 324 324 324 324 324 324 324 324 324 324 324 324 324 324 324
325 327 331 333 333 332 331 330 331 331 332 331 330 330 330 329 328 327 328 329 329 329 330 329 330 329 328 328 329 328 329 329 328 328 328 328 329 329 329 329 328 327 326 327 326 326 325 325 325 324 324 324 324 324 324 324 324 324 325 324 324 324 323
328 327 330 332 333 333 332 330 330 331 332 331 330 330 328 328 327 327 328 329 328 329 329 328 329 329 328 328 329 329 328 328 328 328 328 328 329 329 329 329 329 328 327 327 327 327 326 326 325 324 324 324 324 324 324 324 324 324 324 324 324 323 321
329 329 330 331 332 333 333 332 331 330 331 331 331 331 329 329 328 327 327 328 328 328 328 327 328 329 329 329 329 329 328 327 328 328 328 328 329 329 329 329 329 328 327 327 327 327 327 326 326 325 324 324 324 324 324 324 324 324 324 323 323 322 320
328 329 330 331 332 333 332 332 331 331 331 331 331 331 331 331 329 327 327 327 327 327 328 328 328 329 329 329 329 328 328 328 328 329 328 328 329 328 328 329 328 328 327 327 327 327 327 326 326 326 325 324 324 324 324 324 324 324 324 323 322 321 321
327 327 329 330 331 332 333 332 332 332 331 330 331 331 331 331 331 329 328 327 328 328 328 328 328 328 329 329 328 328 328 328 329 329 328 328 329 328 328 329 328 328 328 327 327 327 327 327 326 326 326 325 325 324 324 323 324 324 324 323 322 321 320
327 326 327 329 329 330 331 331 331 332 331 329 328 329 328 329 330 330 330 329 328 329 329 328 328 328 329 328 327 328 329 329 329 329 329 328 328 328 328 329 328 328 328 327 327 328 328 327 326 326 326 326 325 324 323 324 324 324 324 324 322 321 320
327 327 327 327 326 327 328 329 328 330 331 329 328 328 327 326 327 329 330 330 329 329 329 328 327 327 328 327 328 329 329 330 330 330 329 328 328 329 329 329 328 328 328 327 327 328 328 327 326 326 325 326 326 325 324 324 324 324 324 324 323 321 319
328 328 326 324 324 326 327 327 327 329 330 330 329 329 328 326 325 325 328 330 330 329 327 327 327 327 328 328 328 329 330 330 330 330 329 328 328 328 328 328 328 328 328 327 327 328 327 327 327 326 325 325 326 326 325 325 324 324 323 323 323 321 317
329 329 327 324 324 326 326 326 326 328 330 330 330 330 328 325 324 324 325 327 329 329 327 326 327 327 328 329 329 329 329 329 330 329 329 328 328 328 327 327 327 327 327 327 327 327 327 327 327 326 325 325 326 326 326 325 325 324 322 323 323 320 315
330 329 326 324 325 326 326 325 326 328 330 330 330 329 327 324 323 324 325 325 327 328 328 327 328 328 329 329 328 328 328 328 328 328 328 328 328 327 327 327 327 327 327 326 327 327 327 326 326 326 326 325 325 326 326 325 325 325 323 321 320 317 314
330 329 327 326 327 327 326 327 328 329 329 329 329 329 326 324 323 324 326 326 325 326 328 328 328 328 328 328 327 328 327 327 327 327 327 327 326 326 326 326 325 326 326 326 326 327 327 326 326 326 325 325 325 325 326 325 325 325 323 320 318 316 314
329 329 329 329 328 327 327 328 328 329 329 329 329 329 326 324 323 323 325 326 324 324 326 328 327 327 327 326 326 327 327 326 326 326 326 326 325 325 325 325 325 325 326 326 326 326 326 326 326 325 325 325 325 325 326 325 324 324 324 321 319 317 316
329 329 329 329 328 328 328 328 328 329 330 329 328 328 326 324 323 323 323 324 323 323 325 327 327 326 326 326 326 327 327 327 326 326 326 325 325 325 325 325 325 325 325 326 326 326 326 326 326 326 325 325 325 325 325 324 323 323 323 322 320 320 319
328 329 329 329 328 328 328 329 329 329 330 330 328 327 325 324 323 323 322 322 322 323 325 327 326 326 327 326 326 326 327 327 326 326 326 326 325 325 325 324 325 325 325 326 326 326 325 325 325 325 325 325 325 326 326 324 322 322 322 322 321 321 321
326 327 328 329 328 329 329 329 329 329 329 330 329 327 325 323 323 322 321 321 322 323 325 326 326 326 327 326 325 326 326 325 325 325 325 325 325 324 324 324 325 325 325 326 326 326 325 325 325 325 325 325 325 326 326 325 323 322 322 322 322 322 322
323 324 326 328 328 328 329 329 329 329 328 328 329 328 325 324 323 323 321 321 322 323 325 326 325 325 325 325 325 325 324 322 322 324 325 325 325 324 325 325 325 325 325 326 326 326 325 325 325 325 325 325 325 326 326 326 324 324 323 323 323 322 320
322 323 324 326 327 328 328 329 329 329 328 328 327 327 325 325 324 323 322 322 322 323 325 326 325 324 323 324 324 324 321 319 321 323 325 325 325 325 325 325 325 325 325 325 326 326 326 326 325 325 325 325 325 325 326 326 326 325 325 324 323 320 318
322 322 323 324 325 327 327 328 329 329 329 328 327 326 325 325 324 323 322 323 322 323 325 326 325 323 323 324 323 321 319 321 324 325 325 325 325 325 324 323 323 323 322 323 324 325 325 325 325 325 325 325 325 325 325 326 325 325 325 324 323 321 318
321 321 321 323 324 325 327 328 329 329 329 329 327 325 325 324 323 322 322 322 321 323 324 326 326 324 324 323 322 320 320 323 326 326 325 324 323 324 323 322 321 320 319 319 320 321 323 324 325 324 324 325 325 325 325 325 325 325 324 324 323 322 320
320 321 321 321 323 324 326 327 328 329 329 329 328 326 325 324 323 323 322 321 321 323 324 325 325 325 325 323 321 320 321 323 325 325 324 323 323 323 323 322 320 319 318 317 317 318 321 324 325 324 324 325 325 325 325 325 325 324 324 325 323 321 320
318 320 321 321 322 324 325 326 326 328 329 329 329 328 326 324 323 323 323 321 321 323 324 324 323 323 323 323 321 321 322 323 324 324 323 322 322 322 322 321 319 318 317 317 317 319 321 323 325 325 325 325 325 325 324 324 325 325 324 324 323 320 320
316 318 320 321 323 324 324 325 325 326 328 329 329 329 327 324 323 324 323 320 321 322 323 321 320 320 322 322 322 323 323 323 323 323 322 322 321 321 320 319 318 317 317 316 318 321 322 323 324 324 325 325 324 324 324 324 324 324 323 323 323 321 320
313 315 317 320 322 323 324 324 325 326 327 327 328 328 326 323 323 324 321 319 320 322 322 320 319 321 322 323 323 322 322 322 322 322 322 321 320 320 319 318 317 317 316 316 319 322 323 323 324 324 324 324 323 323 323 323 323 322 321 321 320 319 317
312 312 314 317 320 323 324 324 325 325 325 325 326 327 325 323 324 322 319 318 321 323 322 321 321 322 322 322 322 322 321 321 322 321 321 321 320 320 319 318 318 317 315 316 320 323 323 323 323 323 322 322 321 321 321 320 320 319 318 318 317 315 315
311 310 311 314 317 320 322 323 324 324 323 324 326 327 326 325 325 323 321 321 323 324 323 321 321 322 322 321 321 321 321 321 321 321 320 320 320 319 319 318 318 317 316 317 321 323 323 322 321 320 320 319 319 319 318 318 318 317 317 316 316 316 316
310 309 309 311 314 317 319 319 321 321 320 322 324 325 325 325 325 325 324 324 324 324 323 321 320 321 321 320 320 321 321 321 321 320 320 320 319 319 319 319 318 317 317 319 322 323 323 321 320 319 319 319 319 318 318 318 318 317 317 317 317 317 317
310 309 308 308 310 313 314 315 316 316 315 316 321 324 323 323 324 324 323 323 324 324 323 320 319 321 321 320 320 320 320 320 320 320 319 319 319 319 319 318 318 318 318 318 320 321 320 320 320 319 319 319 319 319 318 318 318 317 318 318 317 318 318
309 309 308 307 308 309 311 310 311 312 311 311 315 320 321 322 321 319 318 319 320 321 320 319 319 320 320 320 320 320 320 320 320 319 318 318 319 319 319 318 318 318 318 318 318 318 317 318 319 319 319 319 319 318 318 318 318 318 318 318 317 317 317
308 308 307 307 306 307 308 307 307 309 308 308 312 317 318 317 316 315 315 316 317 318 319 319 319 320 319 320 320 320 320 320 320 319 318 318 319 319 318 318 318 318 318 318 318 317 317 317 318 319 319 319 318 318 318 318 317 317 317 317 317 317 316
307 307 307 306 306 306 306 306 306 307 306 306 310 314 313 312 313 313 314 315 316 317 318 318 319 319 318 319 319 319 319 319 319 318 317 317 318 318 317 317 318 318 318 318 318 318 317 317 317 317 317 317 316 316 316 315 314 314 313 313 312 311 310
306 307 306 306 306 306 306 306 306 306 306 306 308 311 311 311 312 313 314 315 315 316 317 317 318 318 318 318 318 318 318 318 318 317 317 317 318 317 317 317 318 318 318 317 317 317 317 316 316 315 314 313 312 310 309 308 307 306 305 304 304 303 303
305 306 306 306 305 305 305 305 305 306 306 306 307 308 309 311 312 313 313 314 314 315 315 316 316 317 317 317 316 316 316 316 316 316 317 317 316 316 316 316 316 315 315 315 314 313 312 311 310 309 308 306 305 303 302 302 301 301 301 301 300 301 301
304 305 305 305 304 305 305 305 305 305 305 306 305 305 306 307 309 310 310 311 311 312 313 314 315 314 314 313 314 314 314 314 314 314 315 316 315 314 315 314 312 310 309 309 308 306 304 303 303 302 302 301 301 300 300 300 300 300 300 300 300 300 300
Wind_Speed
32 31 28 26 24 21 22 21 20 20 21 22 24 25 27 27 27 27 25 23 22 22 23 22 22 21 19 18 18 17 17 16 14 14 14 15 17 17 16 14 12 9 6 3 2 5 6 8 12 12 11 12 12 12 13 11 10 8 7 6 4 3 2
32 31 28 25 21 18 19 19 20 20 20 22 24 25 27 28 28 28 26 25 24 23 23 23 23 21 19 19 19 18 17 15 14 14 14 14 14 15 15 14 13 11 8 5 4 5 5 6 10 12 13 13 13 13 13 12 11 9 8 6 5 4 4
27 30 28 24 19 17 18 19 21 20 20 22 24 26 27 27 27 27 26 25 25 23 23 24 24 22 20 19 18 17 16 15 15 15 15 13 12 13 14 13 12 11 9 7 6 7 7 6 7 10 15 16 14 14 14 12 12 10 8 7 6 6 6
21 26 27 23 19 18 19 20 20 21 21 22 24 26 27 27 26 25 24 24 25 24 23 25 25 22 20 19 18 18 17 16 15 15 14 14 12 13 14 13 11 10 8 6 4 4 6 7 7 8 13 16 15 14 14 12 12 10 8 7 7 8 7
21 23 24 24 23 22 21 21 19 19 20 21 24 27 27 27 26 25 24 24 25 25 25 25 25 22 20 19 18 18 18 17 16 15 15 15 14 14 14 13 11 10 9 7 4 4 5 5 6 6 10 15 15 15 14 12 12 11 9 9 9 9 8
24 24 24 24 25 25 24 22 19 19 21 23 26 27 27 26 25 24 23 23 24 25 24 24 24 22 20 20 19 19 19 18 16 16 15 15 14 14 13 12 12 11 10 9 7 6 5 5 6 7 8 12 15 15 14 13 12 11 11 11 11 11 10
23 23 23 23 25 26 26 24 22 21 22 24 25 25 24 24 23 22 22 22 22 23 23 23 23 21 20 20 19 19 19 18 16 16 16 15 14 14 13 12 13 12 11 11 9 8 7 6 6 7 8 11 14 14 14 14 13 12 12 13 13 12 12
20 21 21 22 24 26 27 25 24 24 22 21 23 23 21 21 21 21 21 22 22 22 22 22 22 22 21 21 19 19 18 18 17 16 16 16 15 14 13 13 13 12 11 12 11 10 9 8 7 7 8 10 13 14 13 13 14 13 13 14 14 13 13
19 21 23 24 24 26 27 25 24 25 21 17 19 19 18 19 20 21 21 22 22 23 22 22 22 22 21 20 20 19 19 18 17 17 16 17 16 14 14 14 13 12 12 12 12 11 10 9 9 8 8 10 12 14 14 14 16 16 15 15 14 14 13
16 20 22 23 24 25 27 26 24 25 21 15 15 16 16 19 20 21 22 22 23 23 22 22 22 21 20 20 20 20 19 18 17 16 17 17 16 15 15 15 13 12 12 12 12 12 11 10 10 10 10 9 10 13 14 14 14 15 17 17 14 14 14
16 18 19 21 23 24 25 26 26 26 22 17 15 14 15 18 20 22 22 22 22 22 22 23 22 20 20 20 20 20 19 18 17 17 17 17 16 15 16 16 15 13 13 13 12 12 12 11 11 11 11 10 10 12 13 12 10 10 14 17 15 13 13
17 18 18 19 22 24 24 24 25 25 23 19 15 13 15 18 20 22 22 22 21 22 22 22 21 20 20 21 21 20 19 18 18 18 18 17 16 16 17 17 16 15 15 14 13 13 13 12 11 11 12 12 11 11 12 13 12 9 10 14 15 13 12
18 19 19 20 22 23 23 23 23 23 21 18 16 14 15 17 20 21 22 22 22 22 23 22 21 21 21 21 20 19 19 19 19 19 18 18 18 17 17 16 16 16 16 16 15 15 14 12 12 12 12 13 12 11 12 13 14 11 7 9 14 13 12
16 18 19 20 22 22 22 22 22 21 19 18 16 15 17 18 19 20 21 22 22 22 21 20 21 21 21 21 20 19 20 20 19 18 18 19 19 19 17 16 16 16 16 17 16 16 15 13 13 13 13 13 13 13 13 12 14 13 8 7 13 14 13
13 16 18 18 20 21 22 21 20 21 19 18 17 16 18 18 19 20 21 21 21 21 20 20 21 22 21 21 20 20 19 19 19 19 18 19 20 19 18 17 17 17 16 16 16 16 15 14 15 15 14 14 14 14 14 12 13 14 10 8 12 14 13
13 16 18 17 18 20 21 20 19 20 19 18 17 17 18 19 20 21 21 21 21 21 21 21 22 23 22 21 21 20 19 19 19 19 19 19 20 19 19 19 18 17 17 16 16 16 16 15 16 16 14 13 14 15 15 14 13 14 12 10 10 11 12
14 15 16 16 16 18 20 20 20 20 20 19 19 19 19 20 21 22 23 22 22 22 23 22 23 24 23 22 21 20 20 19 19 19 18 18 19 19 19 19 18 18 17 17 16 16 16 16 16 17 16 14 14 16 16 15 15 15 14 13 11 11 11
15 15 14 14 15 16 18 21 20 21 21 21 21 21 21 22 22 23 24 24 22 23 23 22 23 24 23 22 21 20 19 19 18 18 18 17 18 18 18 18 17 17 18 17 16 16 16 17 17 17 17 16 15 16 17 17 16 16 16 15 13 13 13
15 16 15 15 16 16 17 19 19 19 20 21 22 22 22 23 23 23 24 22 22 24 22 21 22 24 23 22 22 20 20 19 19 18 17 17 17 17 16 15 15 16 17 17 16 16 16 17 17 17 18 17 16 17 18 18 18 18 17 15 14 14 15
15 15 15 16 18 18 18 18 18 18 20 22 23 24 24 24 23 23 22 21 23 24 22 21 22 23 23 22 22 21 20 20 20 19 18 17 17 16 15 14 14 14 14 14 14 14 14 15 16 17 17 17 16 17 18 19 19 19 18 16 15 14 14
15 14 13 16 18 20 20 20 19 18 20 24 25 24 24 24 24 24 22 22 25 24 22 22 22 22 22 22 22 21 20 20 20 19 18 18 17 16 15 13 13 13 12 12 12 13 14 14 15 16 16 16 16 17 17 19 21 21 20 19 16 13 14
16 15 12 14 17 19 20 20 20 19 21 26 27 26 25 25 26 25 24 24 25 24 23 23 23 22 22 22 22 21 19 19 19 19 19 18 17 16 14 13 13 12 12 12 13 14 15 14 14 15 16 16 17 17 17 17 19 21 22 22 19 16 15
16 15 13 12 14 17 19 19 20 21 23 28 29 29 28 28 27 26 24 25 26 24 23 23 23 23 23 22 21 21 20 19 18 18 19 18 18 17 15 14 13 12 11 12 12 14 15 15 16 16 17 17 16 17 17 17 18 19 22 25 25 20 17
19 18 14 11 13 15 17 18 19 20 24 28 30 30 30 30 29 27 26 27 26 24 24 24 24 25 24 22 21 21 20 19 19 20 19 18 18 17 16 14 12 11 10 10 11 13 14 15 16 16 16 16 16 16 16 17 17 18 20 26 26 20 16
22 20 16 10 10 12 14 16 18 21 25 29 30 32 32 31 30 29 28 28 26 24 24 24 24 25 24 23 22 20 19 19 20 21 20 19 18 17 16 14 12 10 10 10 11 12 13 14 15 15 15 14 14 15 15 15 17 17 19 24 24 18 15
26 23 19 13 9 10 13 16 18 22 27 31 32 33 34 33 31 30 29 28 26 25 25 24 23 24 23 23 22 21 20 19 20 21 20 19 17 17 15 13 11 10 10 9 10 11 12 12 13 13 12 12 13 14 15 15 16 16 16 18 19 17 16
31 27 22 18 13 10 13 17 21 25 30 33 33 32 33 33 31 31 31 29 28 28 27 24 23 23 23 23 23 22 21 20 20 20 20 19 18 17 15 13 11 10 8 8 9 10 10 10 11 10 10 11 12 12 13 14 15 14 14 15 15 14 13
34 32 27 23 17 13 15 19 23 28 31 32 30 31 34 33 32 33 32 30 30 30 28 25 24 25 24 24 23 22 21 21 20 20 20 20 19 17 16 14 12 9 7 7 8 8 8 8 9 9 10 11 12 12 13 13 13 13 13 12 12 11 10
35 34 31 26 20 16 16 20 24 27 29 31 32 33 36 35 33 33 33 32 33 32 29 26 26 26 26 24 22 21 21 20 21 21 21 20 19 18 16 14 13 9 6 6 8 9 9 9 9 10 11 11 11 12 12 12 11 11 10 10 9 8 7
35 35 33 29 23 17 14 17 22 24 25 30 36 37 38 38 36 35 35 35 34 33 30 27 27 27 26 25 22 21 21 21 21 22 22 21 20 18 17 15 13 10 7 6 8 9 11 13 12 12 11 11 11 11 11 11 11 10 10 9 8 8 7
33 35 35 31 25 19 13 11 15 18 18 24 33 36 36 37 37 35 36 37 35 33 32 29 28 28 27 26 23 22 22 21 20 21 22 22 21 20 18 17 14 11 8 8 8 9 11 12 11 10 9 9 9 9 9 10 10 10 10 10 10 9 9
29 32 33 31 26 19 12 7 6 10 11 15 24 30 31 32 32 30 30 32 32 33 32 30 29 29 28 27 24 23 22 21 20 21 21 21 21 20 19 18 16 13 11 10 9 10 10 10 8 6 6 6 6 7 7 8 8 9 9 9 9 9 10
27 30 31 28 25 19 12 6 2 7 10 12 17 23 24 25 26 26 25 26 27 28 29 29 28 27 26 25 24 22 22 22 21 20 20 21 22 22 21 19 17 15 13 12 11 11 11 10 9 7 7 7 7 7 7 6 6 6 7 7 8 9 9
25 26 27 26 24 21 15 11 8 9 14 16 16 18 19 20 23 24 23 23 23 23 25 26 25 24 22 22 22 21 20 20 20 19 20 21 23 23 22 21 19 17 16 14 14 13 12 11 10 9 8 8 7 7 7 7 7 7 8 8 9 9 10
22 23 24 24 24 23 20 16 14 12 12 17 19 18 17 18 20 21 20 19 19 18 19 19 19 19 19 19 19 18 19 19 19 18 20 23 24 23 23 21 20 18 17 16 15 14 13 12 11 9 8 8 7 7 7 7 7 7 7 7 7 8 8
21 21 22 22 22 23 23 21 20 17 13 14 17 18 17 16 16 17 16 14 14 13 14 14 14 14 15 16 17 18 18 20 20 20 22 24 24 23 22 21 19 18 16 15 13 12 10 9 8 8 7 7 7 6 6 6 5 5 5 5 6 6 6
21 20 19 19 18 20 21 21 21 21 19 17 18 20 19 16 14 14 13 13 13 12 12 13 13 13 13 14 16 18 19 19 19 19 22 23 23 22 21 19 17 15 12 11 9 7 4 4 4 4 4 5 4 4 4 3 3 3 3 4 5 6 6
Wind_Direction
275 274 269 263 257 243 228 221 221 223 225 225 223 219 213 209 211 216 222 225 226 231 232 227 224 220 213 214 219 221 225 228 224 225 227 225 221 215 213 213 209 207 209 220 213 199 197 199 201 200 197 198 196 194 197 199 199 201 200 195 194 196 178
281 280 272 268 261 243 231 228 227 227 225 223 220 215 210 208 210 214 220 224 224 226 228 225 223 221 215 215 218 219 223 227 225 224 225 228 230 225 222 219 213 210 213 226 225 210 212 210 203 200 198 196 194 193 194 196 198 198 193 187 189 194 184
282 281 273 270 264 247 241 239 234 232 227 221 217 213 209 208 210 213 218 224 226 224 223 224 223 219 217 216 217 221 223 223 222 220 218 222 228 229 231 230 223 216 213 223 229 218 216 217 211 207 203 198 194 191 192 194 197 196 189 185 192 194 189
278 274 272 273 265 251 249 248 242 236 229 219 215 213 211 210 212 215 217 222 228 228 224 224 224 219 216 215 216 221 223 221 220 219 216 218 222 225 228 231 232 228 222 227 246 245 240 232 227 220 209 203 196 191 191 192 195 194 188 188 195 195 189
273 264 265 271 264 254 254 255 251 243 234 224 218 216 215 215 215 215 217 219 223 227 224 221 223 221 216 216 218 221 222 221 221 220 218 217 219 221 223 225 230 232 227 226 240 264 278 263 244 240 219 206 198 191 192 196 196 193 189 191 194 191 184
276 265 260 267 267 261 258 257 257 250 239 229 223 220 218 217 216 216 218 219 220 223 221 219 221 219 216 217 218 221 223 222 222 222 221 221 221 223 223 221 224 229 228 227 229 242 264 261 239 240 230 211 201 193 192 199 204 199 193 193 192 188 181
281 274 263 265 271 270 266 262 262 257 248 237 229 225 221 217 215 217 221 223 223 224 220 219 221 218 217 220 221 223 225 225 224 223 223 223 223 223 225 223 223 226 229 230 230 234 243 244 232 232 228 212 203 199 197 199 208 211 202 197 196 193 187
282 280 269 266 271 275 272 269 267 263 257 250 242 237 231 224 217 217 222 225 225 226 224 221 221 219 217 221 225 226 226 225 224 221 222 224 223 223 225 226 226 224 226 230 229 230 235 235 230 229 229 217 202 198 201 204 213 219 211 204 205 201 194
273 273 268 265 269 276 277 276 273 267 263 258 252 251 247 237 226 220 223 227 225 225 225 223 222 221 218 220 225 226 225 225 223 219 220 222 222 224 226 227 227 224 223 226 227 230 233 229 223 219 227 232 216 203 202 208 218 223 216 209 210 207 201
277 271 269 271 274 278 280 280 278 272 266 259 252 250 245 238 233 227 223 224 225 223 221 221 222 221 219 221 224 224 223 224 222 220 219 220 220 224 226 225 226 226 223 222 223 228 231 227 222 216 217 232 236 223 215 217 224 227 220 212 210 211 208
281 273 270 274 276 277 278 280 281 278 273 266 254 240 230 228 231 232 228 222 221 220 217 218 220 221 222 221 221 222 222 222 222 222 219 217 218 223 225 223 224 225 222 221 222 226 228 225 221 219 217 221 235 235 233 239 245 241 229 218 211 210 207
278 272 265 265 270 273 275 276 279 280 278 274 263 240 226 227 227 231 232 226 219 216 216 218 218 220 220 218 219 222 223 222 223 223 219 217 218 222 223 222 224 224 222 223 224 224 225 225 221 218 217 219 227 231 235 245 252 258 246 226 215 207 199
288 280 267 262 266 271 272 270 270 273 273 269 261 238 224 228 228 228 230 229 226 220 215 216 219 219 216 215 218 221 222 223 223 222 220 219 220 222 222 221 222 223 222 225 227 225 224 225 223 219 217 218 224 227 228 236 244 254 265 228 210 202 193
296 288 272 264 268 269 268 267 268 270 267 261 253 234 221 222 224 227 229 229 233 229 218 215 219 218 216 217 219 220 221 223 223 223 221 221 222 223 222 222 221 221 222 224 227 225 223 224 224 221 219 219 222 225 225 226 234 246 257 214 195 193 192
294 288 277 268 269 266 261 261 264 267 263 256 247 232 223 220 218 224 229 230 234 232 221 217 219 219 218 219 219 219 219 221 223 224 223 222 223 223 223 224 224 223 223 224 225 224 223 224 224 223 224 223 223 225 222 219 225 236 241 213 193 194 195
289 282 276 269 266 263 260 256 257 259 258 253 245 231 224 222 217 219 225 230 234 232 223 220 221 220 220 221 221 219 218 219 222 225 226 226 226 225 225 226 226 226 225 224 224 223 222 223 223 224 226 226 226 227 223 217 218 224 229 223 211 207 209
287 279 277 277 272 265 259 254 253 255 255 250 240 230 226 223 217 216 220 227 232 231 223 220 222 222 221 223 223 221 220 221 221 224 227 229 230 229 228 228 228 228 227 226 225 223 222 223 224 225 226 225 225 227 224 217 214 219 225 227 228 228 229
281 274 274 279 278 271 262 257 256 255 255 249 238 230 228 222 215 214 218 223 229 229 223 220 223 223 223 225 226 223 223 223 223 224 227 229 231 232 231 230 229 227 226 227 226 224 224 226 226 227 226 225 224 225 226 220 214 216 222 226 234 242 245
286 273 266 265 265 265 262 259 256 251 249 247 239 233 229 222 214 214 218 222 228 228 221 219 223 225 226 227 225 222 222 223 223 224 224 226 228 229 226 223 222 224 226 228 226 225 227 227 228 230 228 227 226 225 226 224 219 218 221 227 237 251 254
305 284 268 260 258 256 252 252 253 247 239 236 233 230 229 223 216 217 219 223 229 226 218 218 224 225 226 225 221 219 221 221 220 219 219 221 221 219 215 212 215 220 223 225 224 227 230 228 229 231 230 228 228 227 226 226 225 225 227 229 239 254 254
326 308 275 257 253 252 248 247 251 248 234 226 223 222 224 222 218 218 218 220 225 221 213 216 222 222 220 218 218 220 221 217 213 211 212 211 212 213 209 204 208 212 215 217 218 223 229 229 229 230 228 225 226 227 226 226 227 229 229 228 234 244 241
339 334 299 262 249 250 250 247 247 245 231 220 216 216 217 217 219 218 214 215 219 214 209 215 220 218 215 213 216 219 217 211 206 204 203 202 205 206 199 194 197 202 207 213 216 222 227 227 227 228 226 223 224 227 228 227 227 229 229 227 229 230 226
344 345 323 281 256 252 253 248 245 244 231 219 215 214 212 213 218 216 211 214 216 209 209 217 219 216 213 212 215 217 213 208 202 199 199 201 201 198 192 192 197 202 210 217 223 228 230 228 226 225 226 228 229 230 229 228 229 230 231 230 229 227 224
345 347 335 295 264 258 257 250 246 245 235 221 216 213 208 209 214 213 210 215 214 208 209 216 217 216 213 213 216 215 208 203 199 197 198 201 201 198 197 200 204 212 224 231 234 234 234 233 229 225 227 231 234 235 233 232 232 233 236 236 233 228 225
350 352 349 312 267 260 266 261 254 250 240 225 217 211 205 205 210 210 209 212 211 207 208 210 212 215 215 213 212 207 200 198 197 196 198 199 200 200 202 207 214 225 234 239 238 235 233 233 231 227 228 231 235 237 236 236 238 239 242 243 241 235 230
359 358 355 337 297 270 274 272 266 261 248 231 220 212 205 204 207 207 206 209 209 205 202 201 206 211 211 208 204 198 195 196 195 196 197 197 199 202 205 212 221 228 234 239 237 232 229 230 230 228 227 229 232 235 234 233 234 234 235 239 242 241 239
6 2 355 342 322 293 279 270 265 262 252 236 222 212 205 203 203 200 202 206 206 200 196 197 203 206 204 203 200 198 198 199 196 196 197 197 201 205 206 211 219 225 234 238 233 228 224 223 225 225 223 222 223 224 224 222 222 223 224 229 234 235 234
8 6 357 342 325 300 279 264 253 248 244 237 226 212 204 203 200 197 199 202 200 197 196 197 201 203 203 203 201 201 201 200 199 198 197 200 203 203 205 210 215 221 234 236 227 222 217 216 220 217 211 208 209 210 212 212 213 217 218 220 223 224 222
10 10 1 346 329 306 281 264 250 239 232 233 229 214 203 200 198 196 198 198 198 198 198 200 202 203 204 204 203 202 201 200 201 200 198 200 201 201 205 209 210 215 227 231 224 214 206 204 203 197 192 189 189 192 196 198 199 201 201 201 203 206 209
10 14 9 355 339 318 292 269 252 235 220 220 220 208 199 197 196 196 199 199 200 202 200 201 204 203 203 206 205 203 201 200 202 202 201 202 203 204 206 206 206 207 210 218 219 209 202 202 201 195 192 193 194 192 192 194 193 191 194 198 203 208 213
11 17 16 6 350 330 310 284 255 233 210 206 208 202 197 195 194 197 201 198 200 205 202 200 201 200 201 205 207 206 206 206 205 205 205 206 206 207 205 202 200 200 197 200 205 201 199 201 203 201 200 210 216 210 203 204 201 199 207 213 219 228 236
15 20 21 13 1 344 328 316 260 224 194 185 191 192 193 193 191 192 194 190 191 197 197 196 197 197 198 202 207 209 210 210 209 207 207 208 206 204 202 199 195 192 190 194 196 197 197 195 195 199 202 211 221 214 206 205 200 202 214 221 226 236 245
21 25 28 24 16 4 356 13 107 171 155 147 168 179 182 185 184 181 182 184 184 185 186 188 191 193 194 199 204 209 213 214 212 208 208 209 206 200 197 195 192 188 188 192 197 199 200 196 196 204 210 214 220 217 215 216 213 219 235 246 252 259 263
28 29 34 35 33 30 30 45 77 116 123 122 143 166 168 167 168 165 166 174 177 175 175 180 183 186 192 197 202 208 213 214 213 212 210 206 203 198 194 191 189 187 187 189 193 196 197 197 198 202 208 216 225 228 229 234 238 245 252 256 259 261 262
34 37 40 43 44 44 47 54 62 75 94 106 121 139 147 148 151 150 151 159 165 165 168 174 178 181 188 195 200 206 211 211 212 216 212 204 199 195 191 189 187 186 184 185 187 189 192 195 198 202 210 219 227 230 230 231 234 238 242 246 249 251 255
37 43 48 51 53 55 57 60 65 69 75 86 99 113 124 132 137 138 138 144 150 154 161 169 175 176 179 185 188 192 199 200 199 204 206 200 193 189 187 184 180 178 179 179 180 183 188 194 201 209 217 221 220 218 216 217 224 232 239 248 254 257 262
35 42 49 53 57 62 64 65 68 72 75 78 82 88 95 106 120 128 131 133 133 136 143 153 161 160 157 163 169 174 180 179 178 187 192 188 182 180 179 176 170 166 170 173 172 172 178 196 206 206 209 211 203 194 191 197 210 227 246 260 265 269 273